Miscellaneous Local Product
Issued by NWS North Platte, NE

Home | Current Version | Previous Version | Graphics & Text | Print | Product List | Glossary On
Versions: 1 2 3 4 5 6 7 8 9 10 11 12 13 14 15 16 17 18 19 20 21 22 23 24 25 26 27 28 29 30 31 32 33 34 35 36 37 38 39 40 41 42 43 44 45 46 47 48 49 50
000
AXUS43 KLBF 300210
MISLBF


WESTERN AND NORTH CENTRAL NEBRASKA HOURLY WEATHER ROUNDUP
NATIONAL WEATHER SERVICE NORTH PLATTE NE
900 PM CDT SAT AUG 29 2015

NOTE: "FAIR" INDICATES FEW OR NO CLOUDS BELOW 12,000 FEET WITH NO
SIGNIFICANT WEATHER AND/OR OBSTRUCTIONS TO VISIBILITY.

NOTE: STATIONS NOT REPORTING VARIABLES SUCH AS SKY/WEATHER OR
PRESSURE ARE PROVIDED BY THE NEBRASKA DEPARTMENT OF
ROADS...RAWS...AND APRS NETWORKS...AND ARE NOT UNDER
NATIONAL WEATHER SERVICE QUALITY CONTROL.

...OBSERVATIONS IN AND NEAR THE EASTERN PANHANDLE OF NEBRASKA...

CITY           SKY/WX    TMP DP  RH WIND       PRES   REMARKS
PINE RIDGE     CLEAR     82  39  21 S9        29.97S
CHADRON        CLEAR     75  42  30 S12       29.95S HAZE
ALLIANCE       CLEAR     72  44  36 S12       30.03S
SIDNEY         CLEAR     74  43  32 SE12      30.09R
CRESCENT LAKE    N/A     74  44  34 S5          N/A
BIG SPRINGS      N/A     77  49  36 SE8         N/A
$$

...OBSERVATIONS IN NORTH CENTRAL NEBRASKA...

CITY           SKY/WX    TMP DP  RH WIND       PRES   REMARKS
VALENTINE      CLEAR     78  57  48 S8        29.97S
THEDFORD       CLEAR     77  61  57 S10       30.04R
AINSWORTH      CLEAR     74  58  58 S8        30.01R
O`NEILL        PTCLDY    73  67  81 S9        30.01R
ORD            CLEAR     72  62  71 SE5       30.02R
BROKEN BOW     CLEAR     74  64  71 S7        30.05R
SPRINGVIEW       N/A     72  65  78 CALM        N/A
SARGENT          N/A     70  62  77 CALM        N/A
CHAMBERS         N/A     70  65  84 S3          N/A
EWING            N/A     70  65  83 S3          N/A
$$

...OBSERVATIONS IN SOUTHWEST NEBRASKA AND FAR NORTHEAST COLORADO...

CITY           SKY/WX    TMP DP  RH WIND       PRES   REMARKS
WRAY           MOCLDY    79  40  25 SE8       30.08R
HOLYOKE        FAIR      73  54  49 S9        30.07S
IMPERIAL       CLEAR     73  51  46 SE10      30.06R
OGALLALA       CLEAR     77  51  40 SE9       30.05R
NORTH PLATTE   CLEAR     68  63  84 E7        30.04R
MCCOOK         CLEAR     76  56  49 E10       30.05R
LEXINGTON      CLEAR     74  65  73 SE7       30.05S
PAXTON           N/A     70  58  66 SE6         N/A
BRADY            N/A     71  64  79 CALM        N/A
CALLAWAY         N/A     67  64  90 S6          N/A
$$

...OBSERVATIONS IN CENTRAL LINCOLN COUNTY AREA...

CITY           SKY/WX    TMP DP  RH WIND       PRES   REMARKS
N.P. AIRPORT   CLEAR     68  63  84 E7        30.04R
N.P. DOWNTOWN    N/A     75  64  69 CALM        N/A
N.P. SOUTHEAST   N/A     73  63  71 CALM        N/A
$$

...SOME OBSERVATIONS FROM AROUND THE REGION...

CITY           SKY/WX    TMP DP  RH WIND       PRES   REMARKS
DENVER         PTCLDY    79  42  26 S16       30.12S
LARAMIE        CLEAR     69  41  36 SE10      30.24S
CHEYENNE       CLEAR     75  38  26 S7        30.18S
SCOTTSBLUFF    CLEAR     70  49  47 E8        30.02S
RAPID CITY     CLEAR     75  51  43 SE6       29.92S
PIERRE         CLEAR     78  65  63 SE8       29.87S
WINNER         FAIR      77  62  59 SE10      29.94R
SIOUX FALLS    MOCLDY    68  64  87 SE9       30.01R
OMAHA          MOCLDY    67  64  90 E3        30.04R
GRAND ISLAND   CLEAR     68  63  84 SE5       30.04S
KANSAS CITY    MOCLDY    70  66  87 N7        30.03R
WICHITA        PTCLDY    69  61  75 N7        30.03R
HAYS           CLEAR     72  54  53 E8        30.05R
LIBERAL        CLEAR     75  52  43 SE6       30.11R
GOODLAND       CLEAR     69  47  45 S9        30.10R
$$



USA.gov is the U.S. government's official web portal to all federal, state and local government web resources and services.